Showing default

COSMOS 2319, 23653

Orbit data source: Space-Track

COSMOS 2319, 23653 is a payload satellite owned by VKS (CIS) in GEO that was launched on Wed, 30 Aug 1995 UTC via a PROTON-K/DM-2 launch vehicle from the Tyuratam Missile And Space Complex (TTMTR). Payload-class satellites include a variety of spacecraft equipped with specific instruments for various scientific and technological missions. These include communications satellites like Starlink; space stations such as the ISS; scientific satellites like the Hubble; Earth observation satellites from companies like Planet Labs, Umbra, and HawkEye 360; GPS; miniature CubeSats for education and research; and military/defense satellites.

Not visible in the next 10 days
Identifier
23653, 1995-045A
Orbit
GEO
Country
Flag of CISCIS
Related business
Manufacturer
NPO PM
Mission
Non-operational Defense Communications
Bus & Motor
GEIZER, Unknown motor
Mass
2,300 kg wet, ~1,900 kg dry
Launch date (UTC)
1995-08-30 (30 years ago)
Launch vehicle
PROTON-K/DM-2
Launch site
Tyuratam Missile And Space Complex (TTMTR)
Object type
Payload
Rocket body
Debris
Shape & HBR
Hex Poly + 2 Pan, 4.5 m
Radar Cross Section
17.360 m², Large (>1 m²)

Expand to show TLE details & history
Last TLE update: 21 hours ago

TLE from 21 hours ago
0 COSMOS 2319
1 23653U 95045A   25340.38324943 -.00000299  00000-0  00000-0 0  9993
2 23653  14.3866 354.1723 0008242 252.9709 106.8624  1.00245152110856
Epoch: 2025-12-06T09:11Z
TLE epoch observation values (Epoch: 2025-12-06T09:11:52.750Z)
Latitude
-0.01624°
Longitude
140.70616°
Altitude
35,803.729 km
Speed
3.074 km/s
True Right ascension
23h 36m 21s
True Declination
0° 00' 58"
Sunlit
Object was in daylight at epoch
Visualization orbit readout
Latitude
Unknown
Longitude
Unknown
Altitude
Unknown
Speed
Unknown
Apparent Right ascension
Unknown
Apparent Declination
Unknown
Sunlit
N/A
Visualization observer readout
Local Sidereal Time
04:00:49
Azimuth
Unknown
Elevation
Unknown
Doppler factor
Unknown
Orbital elements
Apogee altitude
35,829.795 km
Perigee altitude
35,760.277 km
Semi-major axis
42,173.173 km
Eccentricity
0.00082
Inclination
14.3866°
RAAN
354.1723°
Arg. of periapsis
252.9709°
True anomaly
106.95276°
Mean anomaly
106.8624°
Eccentric anomaly
106.90758°
Mean motion
0.2506 °/min
Orbital period
1,436.53 mins
BSTAR
0
Loading maneuver chart data...
Computing Atmospheric mass density...
Loading historical data...
Loading historical data...
Loading historical data...
Loading historical data...
Loading historical data...
Loading historical data...
Loading historical data...

Documentation

Showing up to 5 results
|